GPS BIIR-08 1 27663U 03005A 26254.60300986 -.00000010 00000+0 00000+0 0 9993 2 27663 54.8693 211.5378 0150225 53.5986 121.3720 2.00555870173042 GPS BIIR-11 1 28190U 04009A 26253.89719514 -.00000011 00000+0 00000+0 0 9996 2 28190 54.7639 272.2167 0117973 176.3888 2.1213 2.00573795164662 GPS BIIR-13 1 28474U 04045A 26254.14304954 -.00000079 00000+0 00000+0 0 9992 2 28474 55.0798 321.4298 0172011 318.4975 101.9612 2.00559594160151 GPS BIIR-14M 1 28874U 05038A 26254.68789001 -.00000015 00000+0 00000+0 0 9998 2 28874 54.8134 269.6790 0128756 297.4628 121.8822 2.00559724153571 METEOSAT-9 (MSG-2) 1 28912U 05049B 26255.08946080 .00000113 00000+0 00000+0 0 9998 2 28912 9.5547 53.2842 0001893 347.3065 28.4077 1.00273600007876 GPS BIIR-16M 1 29601U 06052A 26255.17223389 -.00000005 00000+0 00000+0 0 9990 2 29601 54.9240 210.5606 0085404 91.1350 269.8072 2.00562877145151 GPS BIIR-17M 1 32260U 07047A 26254.98184191 -.00000014 00000+0 00000+0 0 9995 2 32260 54.1635 76.4901 0169011 89.4051 272.5828 2.00551515138551 GPS BIIR-18M 1 32384U 07062A 26255.30859454 -.00000018 00000+0 00000+0 0 9991 2 32384 54.9678 270.6430 0036015 170.0830 195.9120 2.00564843137265 GOES 14 1 35491U 09033A 26255.19761270 -.00000153 00000+0 00000+0 0 9998 2 35491 1.9087 81.8185 0002116 90.4315 335.1427 1.00071611007461 GOES 15 1 36411U 10008A 26255.16425447 .00000008 00000+0 00000+0 0 9993 2 36411 1.5126 81.8555 0005151 80.3249 311.4374 1.00271451060518 GSAT0101 (GALILEO-PFM) 1 37846U 11060A 26254.66300968 -.00000103 00000+0 00000+0 0 9996 2 37846 56.9594 339.4167 0000252 59.2386 300.8114 1.70475619092595 GSAT0102 (GALILEO-FM2) 1 37847U 11060B 26246.42885211 -.00000084 00000+0 00000+0 0 9999 2 37847 56.9635 339.6410 0001594 329.3167 62.9507 1.70475714092467 LUCH 5A 1 37951U 11074B 26255.30024955 -.00000060 00000+0 00000+0 0 9991 2 37951 8.9694 72.5067 0003883 120.8575 72.9739 1.00272684053926 METEOSAT-10 (MSG-3) 1 38552U 12035B 26255.29425505 -.00000019 00000+0 00000+0 0 9995 2 38552 4.8739 60.5319 0000821 104.3128 292.4627 1.00270691051734 SARSAT 13 (METOP-B) 1 38771U 12049A 26255.26269997 .00000061 00000+0 47748-4 0 9992 2 38771 98.6421 304.9895 0003457 95.3514 264.8058 14.21458567725631 GPS BIIF-3 1 38833U 12053A 26254.07115221 .00000014 00000+0 00000+0 0 9997 2 38833 53.5962 140.0783 0185451 67.3330 294.6954 2.00556923101166 GSAT0103 (GALILEO-FM3) 1 38857U 12055A 26254.70411981 .00000015 00000+0 00000+0 0 9998 2 38857 55.8600 99.1697 0002047 315.2788 44.7968 1.70473471086483 GPS BIIF-4 1 39166U 13023A 26253.93870360 -.00000008 00000+0 00000+0 0 9995 2 39166 54.4436 265.4738 0142242 51.1420 310.1467 2.00563471097608 INSAT-3D 1 39216U 13038B 26255.24858149 -.00000352 00000+0 00000+0 0 9996 2 39216 2.1447 81.3476 0001299 111.6066 17.3162 1.00272935047956 GPS BIIF-5 1 39533U 14008A 26254.93755993 .00000013 00000+0 00000+0 0 9997 2 39533 53.6623 145.7793 0083589 231.5683 127.7499 2.00565427091423 LUCH 5V 1 39727U 14023A 26255.02784053 -.00000281 00000+0 00000+0 0 9997 2 39727 5.3446 68.7928 0002658 139.8943 247.1260 1.00270837045234 GPS BIIF-6 1 39741U 14026A 26255.21641731 -.00000090 00000+0 00000+0 0 9990 2 39741 56.4493 328.1268 0039293 324.1701 35.6287 2.00554703090287 GPS BIIF-7 1 40105U 14045A 26254.80750477 .00000003 00000+0 00000+0 0 9992 2 40105 55.4149 85.0144 0036346 119.8600 240.5660 2.00564033087819 GSAT0201 (GALILEO 5) 1 40128U 14050A 26255.19351443 -.00000034 00000+0 00000+0 0 9991 2 40128 48.7843 269.8594 1686337 182.7547 176.1917 1.85519597079932 GSAT0202 (GALILEO 6) 1 40129U 14050B 26254.37077936 -.00000029 00000+0 00000+0 0 9997 2 40129 48.8022 268.9798 1687741 183.4320 175.2535 1.85520202082087 GPS BIIF-8 1 40294U 14068A 26254.67830742 -.00000091 00000+0 00000+0 0 9993 2 40294 57.0446 27.6301 0067069 73.7719 286.9591 2.00556705086945 GLONASS-K 2 1 40315U 14075A 26254.64437777 -.00000002 00000+0 00000+0 0 9995 2 40315 63.6173 187.3806 0022192 210.5501 149.3143 2.13101274091695 GPS BIIF-9 1 40534U 15013A 26254.31523678 -.00000015 00000+0 00000+0 0 9995 2 40534 53.1580 200.6179 0112771 41.0484 319.7596 2.00570877083552 GSAT0203 (GALILEO 7) 1 40544U 15017A 26252.09412080 -.00000100 00000+0 00000+0 0 9992 2 40544 56.7527 339.3092 0004460 251.6359 108.3566 1.70476378070633 GSAT0204 (GALILEO 8) 1 40545U 15017B 26254.69651230 -.00000103 00000+0 00000+0 0 9996 2 40545 56.7582 339.2572 0004836 241.3315 118.6677 1.70475843033724 GPS BIIF-10 1 40730U 15033A 26253.98036862 -.00000009 00000+0 00000+0 0 9994 2 40730 53.9223 263.5429 0117089 30.5092 330.1897 2.00551728081714 METEOSAT-11 (MSG-4) 1 40732U 15034A 26255.22474807 .00000049 00000+0 00000+0 0 9994 2 40732 3.4138 70.4786 0000644 71.3872 299.5187 1.00272237008093 GSAT0206 (GALILEO 10) 1 40890U 15045B 26254.09842668 -.00000002 00000+0 00000+0 0 9999 2 40890 54.9256 219.2330 0002540 349.0399 10.9008 1.70473136068501 GPS BIIF-11 1 41019U 15062A 26255.02923263 -.00000092 00000+0 00000+0 0 9996 2 41019 57.0156 27.4729 0115821 231.0497 127.9112 2.00566941079570 ELEKTRO-L 2 1 41105U 15074A 26255.29139501 -.00000129 00000+0 00000+0 0 9999 2 41105 6.9079 69.4189 0001848 196.4029 175.8604 1.00272019039389 GSAT0209 (GALILEO 12) 1 41174U 15079A 26253.09398405 .00000021 00000+0 00000+0 0 9996 2 41174 55.8813 98.9312 0003699 16.5279 343.5809 1.70473608066222 GSAT0208 (GALILEO 11) 1 41175U 15079B 26253.90103922 .00000018 00000+0 00000+0 0 9991 2 41175 55.8790 98.9063 0005171 45.8921 314.2454 1.70473654066655 GPS BIIF-12 1 41328U 16007A 26254.61951825 .00000007 00000+0 00000+0 0 9993 2 41328 55.5828 86.0329 0097493 247.2191 111.8125 2.00572750077572 GSAT0211 (GALILEO 14) 1 41549U 16030A 26254.61074273 -.00000001 00000+0 00000+0 0 9992 2 41549 55.0761 219.3188 0003775 332.6530 27.2735 1.70473146064149 GSAT0210 (GALILEO 13) 1 41550U 16030B 26254.28128270 -.00000002 00000+0 00000+0 0 9995 2 41550 55.0753 219.3259 0004075 253.3502 106.5514 1.70473599064130 INSAT-3DR 1 41752U 16054A 26255.14747361 -.00000092 00000+0 00000+0 0 9998 2 41752 0.0257 109.2023 0011669 155.5973 213.4660 1.00272231036694 GSAT0207 (GALILEO 15) 1 41859U 16069A 26254.56034713 .00000015 00000+0 00000+0 0 9991 2 41859 55.5533 98.6945 0003037 359.7632 0.3287 1.70473750060879 GSAT0212 (GALILEO 16) 1 41860U 16069B 26253.24052514 .00000019 00000+0 00000+0 0 9990 2 41860 55.5502 98.7259 0003965 39.3601 320.7650 1.70473888061105 GSAT0213 (GALILEO 17) 1 41861U 16069C 26251.84779498 .00000021 00000+0 00000+0 0 9995 2 41861 55.5520 98.7726 0002168 331.3762 28.7083 1.70474341060943 GSAT0214 (GALILEO 18) 1 41862U 16069D 26253.16735567 .00000020 00000+0 00000+0 0 9991 2 41862 55.5429 98.7287 0002373 358.3065 1.7890 1.70474047061094 GOES 16 1 41866U 16071A 26255.26364411 -.00000106 00000+0 00000+0 0 9993 2 41866 0.5508 84.5800 0001696 131.1654 125.7660 1.00272465035971 GSAT-17 1 42815U 17040B 26255.09890750 -.00000273 00000+0 00000+0 0 9991 2 42815 0.0025 171.0648 0003955 81.6474 227.5013 1.00270430033663 GSAT0215 (GALILEO 19) 1 43055U 17079A 26254.24294115 -.00000002 00000+0 00000+0 0 9999 2 43055 55.0541 219.1395 0003346 281.3163 78.5923 1.70473895054455 GSAT0216 (GALILEO 20) 1 43056U 17079B 26254.53404181 -.00000001 00000+0 00000+0 0 9997 2 43056 55.0545 219.1316 0004612 288.6464 71.2497 1.70473999054477 GSAT0217 (GALILEO 21) 1 43057U 17079C 26254.16828368 -.00000002 00000+0 00000+0 0 9995 2 43057 55.0524 219.1392 0004080 302.5197 57.3871 1.70473968054452 GSAT0218 (GALILEO 22) 1 43058U 17079D 26254.38836198 -.00000002 00000+0 00000+0 0 9990 2 43058 55.0528 219.1309 0005052 284.2678 75.6223 1.70473958054481 GOES 17 1 43226U 18022A 26255.27648829 -.00000197 00000+0 00000+0 0 9992 2 43226 1.1557 84.2448 0000831 130.2329 146.8528 1.00272393031296 GSAT0221 (GALILEO 25) 1 43564U 18060A 26253.11958898 -.00000101 00000+0 00000+0 0 9995 2 43564 57.1351 339.4875 0004384 269.9725 90.0208 1.70476218050611 GSAT0222 (GALILEO 26) 1 43565U 18060B 26249.23326963 -.00000093 00000+0 00000+0 0 9996 2 43565 57.1403 339.5966 0004580 241.9595 118.0319 1.70475955050593 GSAT0219 (GALILEO 23) 1 43566U 18060C 26242.41507176 -.00000076 00000+0 00000+0 0 9998 2 43566 57.1426 339.7826 0003515 273.9182 86.0846 1.70476242050454 GSAT0220 (GALILEO 24) 1 43567U 18060D 26253.19462196 -.00000101 00000+0 00000+0 0 9997 2 43567 57.1370 339.4905 0003678 268.4040 91.5976 1.70475942050620 BEIDOU-3 M13 1 43622U 18072A 26254.98563345 -.00000040 00000+0 00000+0 0 9990 2 43622 56.7046 59.7997 0004180 330.4364 29.5577 1.86230810054271 BEIDOU-3 M14 1 43623U 18072B 26254.85104984 -.00000039 00000+0 00000+0 0 9995 2 43623 56.7062 59.7985 0003864 24.7605 335.2765 1.86230892054261 GPS BIII-1 1 43873U 18109A 26255.00819124 .00000007 00000+0 00000+0 0 9994 2 43873 55.7397 88.7611 0039989 196.1580 336.6894 2.00565073056819 METEOR-M2 2 1 44387U 19038A 26255.27905325 -.00000002 00000+0 19033-4 0 9992 2 44387 98.9232 243.8869 0002172 104.1716 255.9704 14.24385496373699 GPS BIII-2 1 44506U 19056A 26253.40900905 -.00000085 00000+0 00000+0 0 9997 2 44506 55.5893 327.7525 0065766 199.8938 163.8410 2.00571097051789 BEIDOU-3 M24 1 44542U 19061A 26253.08125853 -.00000024 00000+0 00000+0 0 9991 2 44542 54.3942 179.8664 0009174 11.0844 348.9243 1.86229234047379 BEIDOU-3 M23 1 44543U 19061B 26253.49471433 -.00000020 00000+0 00000+0 0 9991 2 44543 54.3922 179.8209 0006043 0.0624 188.1997 1.86227700047386 BEIDOU-3 M22 1 44793U 19078A 26254.53316205 -.00000050 00000+0 00000+0 0 9990 2 44793 53.8546 296.7826 0004840 42.9059 317.1987 1.86227049046257 BEIDOU-3 M21 1 44794U 19078B 26254.13590323 -.00000047 00000+0 00000+0 0 9998 2 44794 53.8284 296.7562 0002736 33.9992 326.0864 1.86227553046255 ELEKTRO-L 3 1 44903U 19095A 26253.38474233 -.00000115 00000+0 00000+0 0 9992 2 44903 0.4704 82.4109 0001222 76.1930 45.2369 1.00270492024565 GPS BIII-3 1 45854U 20041A 26255.20450088 -.00000095 00000+0 00000+0 0 9993 2 45854 56.7252 25.5740 0067432 205.4040 308.9873 2.00566080045784 COSMOS 2547 1 46805U 20075A 26254.75844100 .00000000 00000+0 00000+0 0 9993 2 46805 64.6008 189.5880 0008553 236.4821 123.4270 2.13099687045750 GPS BIII-4 1 46826U 20078A 26254.51705881 -.00000012 00000+0 00000+0 0 9999 2 46826 53.9683 207.2798 0076066 208.4421 149.1755 2.00565053043233 GSAT0223 (GALILEO 27) 1 49809U 21116A 26251.38578007 -.00000099 00000+0 00000+0 0 9992 2 49809 57.1270 339.4281 0003955 220.3982 200.3753 1.70476049029607 GSAT0224 (GALILEO 28) 1 49810U 21116B 26255.20646131 -.00000103 00000+0 00000+0 0 9999 2 49810 57.1262 339.3236 0003182 214.6681 143.5941 1.70476350029683 GOES 18 1 51850U 22021A 26255.19588793 .00000081 00000+0 00000+0 0 9993 2 51850 0.0349 307.2029 0000501 281.7630 55.7687 1.00273362007462 COSMOS 2557 (706K) 1 52984U 22075A 26254.92206911 -.00000044 00000+0 00000+0 0 9990 2 52984 64.2422 311.4262 0012521 269.0241 90.9097 2.13102028032563 METEOSAT-12 (MTG-I1) 1 54743U 22170C 26255.29416838 -.00000023 00000+0 00000+0 0 9990 2 54743 0.7778 26.1406 0003751 86.6528 343.9511 1.00271071013856 METEOR-M2 3 1 57166U 23091A 26255.29375786 -.00000004 00000+0 17201-4 0 9996 2 57166 98.6000 308.4526 0002786 279.2318 80.8546 14.24052364166918 COSMOS 2569 (703K) 1 57517U 23114A 26255.06619013 .00000000 00000+0 00000+0 0 9990 2 57517 65.3568 69.6932 0008570 289.2479 70.6925 2.13102544024115 METEOR-M2 4 1 59051U 24039A 26255.26654838 -.00000005 00000+0 17367-4 0 9993 2 59051 98.7110 213.5067 0005950 280.9553 79.0955 14.22437189131644 GSAT0225 (GALILEO 29) 1 59598U 24079A 26254.92947344 .00000012 00000+0 00000+0 0 9990 2 59598 55.1754 98.6543 0001346 119.7816 61.6279 1.70474149014796 GSAT0227 (GALILEO 30) 1 59600U 24079C 26254.23092435 .00000015 00000+0 00000+0 0 9993 2 59600 55.1701 98.6721 0004144 92.2332 267.9075 1.70474135014832 GSAT0232 (GALILEO 32) 1 61182U 24167A 26255.05124064 .00000001 00000+0 00000+0 0 9999 2 61182 55.1656 218.9315 0005621 235.9553 123.2359 1.70473627012356 GSAT0226 (GALILEO 31) 1 61183U 24167B 26254.31972794 -.00000002 00000+0 00000+0 0 9991 2 61183 55.1647 218.9588 0002511 247.1445 114.4318 1.70473586012327 GSAT0233 (GALILEO 33) 1 67160U 25302A 26254.16480075 .00000014 00000+0 00000+0 0 9995 2 67160 54.3907 99.6797 0002812 137.8820 225.2404 1.70474110004591 GSAT0234 (GALILEO 34) 1 67162U 25302C 26254.15878367 .00000014 00000+0 00000+0 0 9991 2 67162 54.3927 99.6790 0000510 35.7866 143.7414 1.70474090004645